Regional Weather Roundup
Issued by NWS

Home | Current Version | Previous Version | Graphics & Text | Print | Product List | Glossary On
Versions: 1 2 3 4 5 6 7 8 9 10 11 12 13 14 15 16 17 18 19 20 21 22 23 24 25 26 27 28 29 30 31 32 33 34 35 36 37 38 39 40 41 42 43 44 45 46 47 48 49 50
346
ASUS43 KFSD 211902
RWRSD

WEATHER ROUNDUP FOR SOUTH DAKOTA
NATIONAL WEATHER SERVICE SIOUX FALLS SD
200 PM CDT THU MAY 21 2015

NOTE: "FAIR" INDICATES FEW OR NO CLOUDS BELOW 12,000 FEET WITH NO
SIGNIFICANT WEATHER AND/OR OBSTRUCTIONS TO VISIBILITY.


SDZ001>005-009-010-012>017-212000-
NORTHWEST AND NORTH CENTRAL SOUTH DAKOTA

CITY           SKY/WX    TMP DP  RH WIND       PRES   REMARKS
BUFFALO          N/A     65  28  24 SE15G29   30.14F
FAITH            N/A     65  32  29 S9G17     30.21F
MOBRIDGE       SUNNY     73  29  19 NW8       30.15F
$$

SDZ012>016-024>037-041>051-057-063-072>074-212000-
SOUTHWEST AND SOUTH CENTRAL SOUTH DAKOTA

CITY           SKY/WX    TMP DP  RH WIND       PRES   REMARKS
RAPID CTY ARPT SUNNY     60  29  30 SE13G20   30.21F
PIERRE         SUNNY     67  35  30 W6        30.20F
CUSTER         SUNNY     51  27  39 E14       30.21F
ELLSWORTH AFB  SUNNY     60  26  27 S12G18    30.20F
PHILIP         SUNNY     65  34  31 VRB6      30.21F
PINE RIDGE     SUNNY     59  36  42 S7        30.21F
WINNER         FAIR      66  33  29 CALM      30.23F
$$

SDZ004>011-016>023-039-040-212000-
NORTHEAST SOUTH DAKOTA

CITY           SKY/WX    TMP DP  RH WIND       PRES   REMARKS
ABERDEEN       SUNNY     71  40  32 VRB7      30.15F
WATERTOWN      SUNNY     70  39  32 NW12      30.14F
BROOKINGS      SUNNY     70  37  30 NW18      30.15F
$$

SDZ017-020-022-023-036>040-048>070-212000-
SOUTHEAST SOUTH DAKOTA

CITY           SKY/WX    TMP DP  RH WIND       PRES   REMARKS
SIOUX FALLS    MOSUNNY   72  36  26 NW17G25   30.14F
HURON          SUNNY     73  33  23 W14G29    30.16F
CHAMBERLAIN    SUNNY     67  38  33 SW9       30.22S
MITCHELL       SUNNY     73  34  23 NW14G23   30.18F
YANKTON        SUNNY     70  39  32 W14       30.19S
$$

ABBREVIATIONS USED IN REMARKS
   TC - TEMPERATURE IN CELSIUS
  WCI - WIND CHILL INDEX
   HX - HEAT INDEX
  VSB - VISIBILITY




USA.gov is the U.S. government's official web portal to all federal, state and local government web resources and services.